Regional Weather Roundup
Issued by NWS

Home | Current Version | Previous Version | Text Only | Print | Product List | Glossary On
Versions: 1 2 3 4 5 6 7 8 9 10 11 12 13 14 15 16 17 18 19 20 21 22 23 24 25 26 27 28 29 30 31 32 33 34 35 36 37 38 39 40 41 42 43 44 45 46 47 48 49 50
000
ASUS45 KABQ 011110
RWRNM
WEATHER ROUNDUP FOR NEW MEXICO
NATIONAL WEATHER SERVICE ALBUQUERQUE NM
400 AM MST SUN MAR 01 2015

NOTE: "FAIR" MEANS FEW OR NO CLOUDS BELOW 12,000 FEET AGL WITH NO
       SIGNIFICANT WEATHER OR OBSTRUCTIONS TO VISION.

      THIS PRODUCT IS RELEASED AS TWO VERSIONS.  ONE VERSION NEAR
      THE TOP OF THE HOUR CONTAINING PRELIMINARY DATA FROM ALBUQUERQUE
      AND OTHER STATIONS.  A FINAL VERSION WITH ADDITIONAL DATA IS
      ISSUED ABOUT 10 MINUTES AFTER THE HOUR.

NMZ501-503-504-510>518-011200-
NORTHWEST PLATEAU/NORTHCENTRAL MOUNTAINS

CITY           SKY/WX    TMP DP  RH WIND       PRES   REMARKS
FARMINGTON     CLOUDY    32  31  96 E9        30.00S WCI  24
LOS ALAMOS     LGT SNOW  32  32 100 CALM      30.06R
SANTA FE       CLOUDY    33  31  92 N3        30.03R
TAOS           CLOUDY    32  28  86 E5        30.04F WCI  27
ANGEL FIRE     LGT SNOW  31  28  87 W16G24      N/A  WCI  20

$$
NMZ402-403-502-505>509-011200-
WESTCENTRAL MOUNTAINS/SOUTHWEST MOUNTAINS

CITY           SKY/WX    TMP DP  RH WIND       PRES   REMARKS
GALLUP         CLOUDY    37  35  92 CALM      30.00F
GRANTS         LGT RAIN  34  33  99 SE7       30.04S WCI  28
SILVER CITY    CLEAR     36  34  93 NE5       30.08S WCI  32

$$
NMZ407-409-411-412-011200-
SOUTHERN DESERTS

CITY           SKY/WX    TMP DP  RH WIND       PRES   REMARKS
LORDSBURG      FAIR      45  36  70 SE6       30.02S
DEMING         CLEAR     44  36  73 CALM      30.04S
LAS CRUCES     CLEAR     43  33  68 W7        30.05S
HOLLOMAN AFB   CLEAR     46  31  56 SE6       30.02S
ALAMOGORDO     CLEAR     48  32  53 MISG      30.04S
T OR C         CLEAR     49  38  65 S10       30.00S

$$
NMZ519>523-011200-
CENTRAL VALLEYS/CENTRAL HIGHLANDS

CITY           SKY/WX    TMP DP  RH WIND       PRES   REMARKS
ALBUQUERQUE    LGT RAIN  34  31  88 E6        30.03F WCI  29
DOUBLE EAGLE   CLOUDY    33  31  92 NW8       30.04S WCI  26
MORIARTY ARPT  PTSUNNY   30  28  92 CALM      30.04R
CLINES CORNERS MOCLDY    37  31  78 W16       30.01S WCI  28
BELEN          CLOUDY    32  32 100 NW7       30.04S WCI  26
SOCORRO          N/A     33  31  90 N5        30.03S WCI  29

$$
NMZ524>526-539-540-011200-
SOUTHCENTRAL MOUNTAINS

CITY           SKY/WX    TMP DP  RH WIND       PRES   REMARKS
RUIDOSO        CLEAR     46  32  57 W14G24    30.08R

$$
NMZ527>531-011200-
NORTHEAST HIGHLANDS/NORTHEAST PLAINS

CITY           SKY/WX    TMP DP  RH WIND       PRES   REMARKS
LAS VEGAS      PTCLDY    35  33  92 SW24      29.98S WCI  23
RATON          CLOUDY    23  22  96 N6        30.00F FOG     WCI  16
CLAYTON        CLOUDY    22  20  92 SW7       30.03F WCI  13

$$
NMZ532>537-011200-
EASTCENTRAL PLAINS

CITY           SKY/WX    TMP DP  RH WIND       PRES   REMARKS
TUCUMCARI      CLOUDY    27  24  89 NW3       30.09S
CANNON AFB     FOG       28  27  98 W10       30.09S VSB 1/2 WCI  18
CLOVIS AIRPORT CLOUDY    27  25  93 SW12      30.10S WCI  16

$$
NMZ028-029-538-011200-
SOUTHEAST PLAINS

CITY           SKY/WX    TMP DP  RH WIND       PRES   REMARKS
ROSWELL        CLOUDY    30  29  96 S8        30.11F FOG     WCI  22
ARTESIA        CLOUDY    30  30 100 S12       30.13S WCI  21
CARLSBAD       CLOUDY    33  30  88 S8        30.13R WCI  26
HOBBS          FOG       28  28 100 CALM      30.13F VSB 1/2


$$


USA.gov is the U.S. government's official web portal to all federal, state and local government web resources and services.